www.pogodaiklimat.ru

Погода и климат >> Архив погоды >> Норвегия >> Сортланн


ПОГОДА в Сортланне

  • Прогноз погоды в Сортланне
  • Монитор погоды в Сортланне

АРХИВ ПОГОДЫ в Сортланне

Время (UTC), дата Ветер
(напр.,м/с)
 
Видим.   Явления Облачность Т
(С)
Тd
(С)
f
(%)
Тe
(С)
Тes
(С)
Комфортность P
(гПа)
Po
(гПа)
Тmin
(С)
Tmax
(С)
R
(мм)
R24
(мм)
S
(см)
12 16.09 С 5
{6}
35 км 4/1 1000 м
[Cu hum Ci fib]
+11.5 +5.4 66 +9 +10 999.0 998.4
15 16.09 С 6 >70 км 4/1 1000 м
[Cu hum Ci fib]
+11.3 +5.0 65 +9 +9 999.1 998.5
18 16.09 С 2
{7}
>70 км 6/0 1000 м
[Ac und Ci sp]
+8.7 +4.1 73 +7 +7 999.3 998.7 +7.0 +11.8
21 16.09 СЗ 2 65 км 9/0
[Ac und]
+6.3 +3.6 83 +4 +4 999.3 998.7
00 17.09 СЗ 2
{4}
70 км 5/0 2000 м
[Ac und Cs]
+5.0 +3.3 89 +2 +2 999.8 999.2
03 17.09 С 2 70 км 1/0
[Ac und Cs]
+4.5 +3.2 91 +2 +2 1000.2 999.6
06 17.09 С 1
{3}
65 км 4/0 2000 м
[Ac trans Cs]
+4.7 +2.9 88 +3 +4 1000.9 1000.3 +4.3 +8.4
09 17.09 С 2 >70 км 6/6 1000 м
[Sc]
+8.5 +4.3 75 +7 +8 1002.4 1001.8
12 17.09 С 2
{5}
>70 км 4/3 1000 м
[Cu hum Ci fib]
+10.6 +3.4 61 +10 +11 1003.7 1003.1
15 17.09 С 6 65 км {ливн. осадки} 8/4 1000 м
[Cu hum Ci fib]
+10.7 +4.4 65 +8 +8 1004.7 1004.1
18 17.09 С 3
{9}
65 км {ливн. осадки} 8/1 1000 м
[Cu med, cong Cs]
+9.5 +4.3 70 +7 +7 1005.6 1005.0 +4.9 +11.2 0.2
21 17.09 СЗ 4 65 км 8/1 1000 м
[Cu med, cong Cs]
+8.3 +4.9 79 +5 +5 1006.7 1006.1
00 18.09 С 3
{8}
55 км слаб. ливневой дождь 10/4 600 м
[Cu Sc Ac As]
+7.6 +5.2 85 +5 +5 1007.9 1007.3
03 18.09 С 6 55 км {ливн. осадки} 8/4 600 м
[Cu Sc Ac cuf]
+8.0 +4.6 79 +4 +4 1008.5 1007.9
06 18.09 С 8
{13}
55 км {ливн. осадки} 6/3 600 м
[Cu Sc Ac cuf Cc]
+8.2 +3.7 73 +4 +4 1009.6 1009.0 +6.3 +9.8 0.8
09 18.09 С 9 55 км 8/4 600 м
[Cu Sc Ac cuf Cc]
+7.9 +4.5 79 +3 +3 1012.0 1011.4
12 18.09 В 9
{14}
65 км 6/3 600 м
[Cb calv Ac cuf Ci sp]
+8.4 +4.6 77 +4 +4 1013.6 1013.0
15 18.09 СЗ 6 70 км {ливн. осадки} 9/4 600 м
[Cb calv Ac cuf]
+6.3 +1.5 71 +2 +2 1014.9 1014.3
18 18.09 С 2
{17}
55 км осадки на расстоянии {ливн. осадки} 9/4 300 м
[Cb calv Ac cuf]
+4.6 +2.5 86 +2 +2 1016.2 1015.6 +4.3 +8.5 0.2
21 18.09 ЮВ 1 55 км {ливн. осадки} 9/4 600 м
[Cb calv Ac cuf]
+2.7 +1.2 90 +1 +1 1016.8 1016.2
00 19.09 С 1
{12}
55 км в посл. час ливневой дождь 8/5 600 м
[Cu Sc Ac cuf]
+3.3 +0.7 83 +2 +2 1017.1 1016.5
03 19.09 З 2 55 км слаб. ливневой дождь 10/6 600 м
[Cu Sc Ac As]
+2.8 +1.0 88 -0 -0 1016.8 1016.2
06 19.09 Ю 3
{8}
55 км в посл. час ливневой дождь 9/5 600 м
[Cu Sc As op]
+2.9 +1.1 88 -1 -1 1016.0 1015.4 +2.4 +4.8 5
09 19.09 СЗ 3 30 км слаб. ливневой дождь 10/10 300 м
[Cb cap]
+4.7 +2.2 84 +1 +1 1016.8 1016.2
12 19.09 С 3
{7}
55 км {ливн. осадки} 8/5 600 м
[Cu Sc As op Cs]
+6.1 +4.4 89 +3 +4 1017.2 1016.6
15 19.09 З 3 30 км слаб. ливневой дождь 10/10 300 м
[Cu Sc]
+5.4 +2.1 79 +2 +2 1017.1 1016.5
18 19.09 З 2
{8}
65 км {ливн. осадки} 8/8 600 м
[Cu Sc]
+4.1 +1.8 85 +1 +1 1016.7 1016.1 +2.9 +7.0 5
21 19.09 Ю 1 65 км {ливн. осадки} 8/5 300 м
[Cu Sc]
+3.6 +2.0 89 +2 +2 1016.3 1015.7
00 20.09 ЮЗ 2
{4}
55 км {ливн. осадки} 6/6 600 м
[Cu Sc]
+3.6 +2.1 90 +1 +1 1015.6 1015.0
03 20.09 СЗ 3 55 км слаб. ливневой дождь 8/6 600 м
[Cu Sc Ci]
+3.4 +2.1 91 -1 -1 1014.9 1014.3
06 20.09 З 1
{6}
55 км слаб. ливневой дождь 9/8 300 м
[Cu Sc As op Ci]
+3.8 +2.5 91 +2 +2 1013.6 1013.0 +2.5 +4.2 2
09 20.09 Ю 2 55 км {ливн. осадки} 9/6 600 м
[Cu Sc Ac lent Cs]
+6.1 +3.4 83 +4 +4 1012.9 1012.3
12 20.09 ЮВ 2
{4}
65 км {ливн. осадки} 10/10 600 м
[Sc]
+7.4 +2.3 70 +6 +6 1012.3 1011.7
15 20.09 З 2 70 км 6/3 600 м
[Cu med, cong Cs]
+6.5 +2.2 74 +4 +5 1011.2 1010.6
18 20.09 СЗ 2
{3}
65 км 9/4 600 м
[Sc Cs]
+5.1 +1.9 80 +3 +3 1010.7 1010.1 +3.9 +7.9 0.1
21 20.09 СЗ 2 65 км 10/0
[]
+3.9 +2.1 88 +1 +1 1010.3 1009.7
00 21.09 СЗ 2
{4}
55 км 6/4 1000 м
[Cu Sc Ac cuf Cs]
+4.2 +2.6 89 +1 +1 1010.6 1010.0
03 21.09 З 2 55 км {ливн. осадки} 8/6 600 м
[Cu Sc Ac cuf Cs]
+3.9 +2.9 93 +1 +1 1011.0 1010.4
06 21.09 Ю 2
{8}
55 км {ливн. осадки} 6/5 300 м
[Cb calv Ac cuf Cs]
+4.1 +2.0 86 +1 +1 1012.0 1011.4 +2.8 +5.1 0.8
09 21.09 С 3 55 км {ливн. осадки} 8/6 600 м
[Cb cap Ac cuf Cs]
+5.3 +1.4 76 +2 +3 1013.3 1012.7
12 21.09 СЗ 3
{12}
40 км в посл. час ливневой дождь 9/4 600 м
[Cb cap Ac cuf]
+5.7 +1.8 76 +3 +3 1014.9 1014.3
15 21.09 С 11 65 км осадки на расстоянии {ливн. осадки} 6/3 600 м
[Cb cap Ac cuf Cs]
+5.4 +1.3 75 -1 -1 1016.0 1015.4
18 21.09 СЗ 4
{15}
65 км осадки на расстоянии {ливн. осадки} 5/4 600 м
[Cu med, cong Ac cuf]
+4.4 +0.7 77 0 0 1017.4 1016.8 +3.8 +7.1 3
21 21.09 З 2 65 км в посл. час ливневой дождь 5/3 600 м
[Cu med, cong Ac cuf]
+3.3 +0.9 84 0 0 1019.1 1018.5
00 22.09 Ю 1
{6}
55 км {ливн. осадки} 6/3 300 м
[Cu med, cong Ac cuf]
+2.2 -0.0 85 +1 +1 1021.0 1020.4
03 22.09 ЮЗ 1 65 км {ливн. осадки} 6/5 600 м
[Cu med, cong Ac cuf Ci fib]
+2.6 +2.2 97 +1 +1 1022.3 1021.7
06 22.09 З 1
{3}
65 км {ливн. осадки} 6/4 600 м
[Cu med, cong Ac cuf Ci]
+2.1 +1.2 94 0 0 1023.5 1022.9 +1.4 +4.3 1
09 22.09 ЮВ 1 65 км 4/3 600 м
[Cu med, cong Ac cuf Cs]
+5.8 +1.9 76 +5 +6 1024.7 1024.1
12 22.09 С 2
{4}
65 км осадки на расстоянии 5/3 1000 м
[Cu med, cong Ac cuf Cs]
+6.9 +2.0 71 +5 +6 1025.4 1024.8
15 22.09 С 4 65 км осадки на расстоянии {ливн. осадки} 8/6 1000 м
[Cu med, cong Ac cuf Cs]
+7.7 +2.2 68 +5 +5 1025.3 1024.7
18 22.09 СЗ 2
{6}
65 км {ливн. осадки} 3/1 600 м
[Cu med, cong Ci]
+5.2 +1.7 78 +3 +3 1025.2 1024.6 +2.1 +7.7 0.0
21 22.09 СЗ 3 65 км 4/3 600 м
[Sc diur, vesp Ci fib]
+4.0 +1.9 86 0 0 1025.1 1024.5
00 23.09 СЗ 2
{4}
65 км 1/0
[Ci fib]
+3.1 -1.8 70 0 0 1025.0 1024.4
03 23.09 СЗ 2 65 км 4/0
[Ac lent Cs]
+3.1 +0.3 82 0 0 1024.3 1023.7
06 23.09 СЗ 1
{4}
65 км 4/0 1500 м
[Ac lent Cs]
+2.6 -0.1 82 +1 +1 1023.4 1022.8 +2.1 +5.1
09 23.09 СЗ 1 65 км 5/0
[Ac trans Ci fib]
+7.2 +2.3 71 +7 +8 1022.9 1022.3

 

Местоположение метеостанции Сортланн (Норвегия): широта 68.70 долгота 15.42 высота над уровнем моря 3 м.

В архиве по умолчанию представлена погода в Сортланне за последнюю неделю. Архивные данные за месяц целиком и за предыдущие месяцы, начиная с января 2011 года, Вы можете получить, выбрав интересующий диапазон дат из раскрывающегося списка и нажав кнопку "Ввод!".


*Определитесь, кто Вы:
робот инопланетянин человек

Внимание! Время в таблицах - всемирное. Для получения местного времени необходимо прибавить поправку, которая равна 1 ч.

Смотрите также архив погоды в соседних городах и на ближайших метеорологических станциях:

Погода в Стокмаркнес аэропорту (Норвегия) (21 км)
Погода в Бё (Норвегия) (41 км)
Погода на Маяке Rotvaer (Норвегия) (42 км)
Погода в Харстаде (Норвегия) (46 км)
Погода в Аэропорту Харстад/Нарвик (Норвегия) (56 км)
Погода в Сволваер аэропорту (Норвегия) (59 км)
Погода на Маяке Skrova (Норвегия) (69 км)
Погода на Аннёйа (Норвегия) (72 км)
Погода в Драге (Норвегия) (77 км)
Погода в Нарвике (Норвегия) (85 км)

Пояснения к столбцам:

Ветер - указаны скорость ветра в м/с - средняя за 10 мин, порывы в срок и между сроками (в фигурных скобках) и направление, откуда дует ветер: С - северный, СВ - северо-восточный, В - восточный, ЮВ - юго-восточный, Ю - южный, ЮЗ - юго-западный, З - западный, СЗ - северо-западный.
Видимость - горизонтальная дальность видимости в метрах или километрах. При видимости от 1 до 10 км при отсутствии осадков обычно наблюдается дымка, при ухудшении видимости до 1 км и менее - туман. В сухую погоду видимость может ухудшаться дымом, пылью или мглою.
Явления - указаны атмосферные явления, наблюдавшиеся в срок или в последний час перед сроком; фигурными скобками обозначены явления, наблюдавшиеся между сроками (за 1-3 часа до срока); квадратными скобками обозначены град или гололедные отложения с указанием их диаметра в мм.
Облачность - указаны через наклонную черту общая и нижняя облачность в баллах и высота нижней границы облаков в метрах; квадратными скобками обозначены формы облаков: Ci - перистые, Cs - перисто-слоистые, Cc - перисто-кучевые, Ac - высококучевые, As - высокослоистые, Sc - слоисто-кучевые, Ns - слоисто-дождевые, Cu - кучевые, Cb - кучево-дождевые. Подробнее классификацию облаков см. в Атласе облаков (PDF).
T - Температура воздуха - температура, измеренная на высоте 2 м над землей.
Td - Температура точки росы - температура, при понижении до которой содержащийся в воздухе водяной пар достигнет насыщения.
f - Относительная влажность воздуха - влажноcть воздуха, измеренная на высоте 2 м над землей.
Te - Эффективная температура - температура, которую ощущает одетый по сезону человек в тени. Характеристика душности погоды. При расчете учитывается влияние влажности воздуха и скорости ветра на теплоощущения человека.
Tes - Эффективная температура на солнце - температура, которую ощущает человек, с поправкой на солнечный нагрев. Характеристика знойности погоды. Зависит от высоты солнца над горизонтом, облачности и скорости ветра. Ночью, в пасмурную погоду, а также при ветре 12 м/с и более поправка равна нулю.
P - Атмосферное давление - приведенное к уровню моря атмосферное давление.
Po - Атмосферное давление - измеренное на уровне метеостанции атмосферное давление.
Tmin - Минимальная температура - минимум температуры воздуха на высоте 2 м над землей.
Tmax - Максимальная температура - максимум температуры воздуха на высоте 2 м над землей.
R - Количество осадков - Количество выпавших осадков за период времени, мм. При наведении курсора мыши на число - период времени, за который выпало указанное количество осадков.
R24 - Количество осадков - Количество выпавших осадков за 24 часа, мм.
S - Снежный покров - Высота снежного покрова, см. При наведении курсора мыши на число - состояние снежного покрова и степень покрытия местности в баллах.